| time (UTC) | temp C | wind direction | speed KPH | gust KPH | rain 1hr cm | rain 24hr cm | rain mn cm | humidity % | barometer mb |
| 20260503031534 | 15 | 177 | 3.2 | 6.4 | 0.00 | 0.00 | 0.00 | 79 | 1016.7 |
| 20260503030048 | 15 | 191 | 3.2 | 4.8 | 0.00 | 0.00 | 0.00 | 79 | 1016.5 |
| 20260503024533 | 15 | 185 | 3.2 | 6.4 | 0.00 | 0.00 | 0.00 | 79 | 1016.7 |
| 20260503023027 | 15 | 182 | 4.8 | 6.4 | 0.00 | 0.00 | 0.00 | 78 | 1016.9 |
| 20260503021527 | 15 | 174 | 3.2 | 9.7 | 0.00 | 0.00 | 0.00 | 77 | 1017.1 |
| 20260503020024 | 15 | 160 | 4.8 | 9.7 | 0.00 | 0.00 | 0.00 | 77 | 1017.0 |
| 20260503014521 | 16 | 171 | 4.8 | 11.3 | 0.00 | 0.00 | 0.00 | 81 | 1017.1 |
| 20260503013019 | 16 | 182 | 1.6 | 6.4 | 0.00 | 0.00 | 0.00 | 81 | 1017.4 |
| 20260503011518 | 16 | 171 | 3.2 | 6.4 | 0.00 | 0.00 | 0.00 | 80 | 1017.7 |
| 20260503010019 | 16 | 203 | 4.8 | 9.7 | 0.00 | 0.00 | 0.00 | 79 | 1017.6 |
| 20260503004517 | 16 | 191 | 3.2 | 6.4 | 0.00 | 0.00 | 0.00 | 80 | 1017.7 |
| 20260503003013 | 16 | 201 | 3.2 | 6.4 | 0.00 | 0.00 | 0.00 | 77 | 1018.0 |
| 20260503001512 | 16 | 197 | 3.2 | 8.0 | 0.00 | 0.00 | 0.00 | 79 | 1018.0 |
| 20260503000019 | 16 | 191 | 3.2 | 9.7 | 0.00 | 0.00 | 0.00 | 78 | 1018.1 |
| 20260502234508 | 16 | 208 | 3.2 | 11.3 | 0.00 | 0.00 | 0.00 | 78 | 1018.3 |
| 20260502233008 | 16 | 175 | 3.2 | 8.0 | 0.00 | 0.00 | 0.00 | 80 | 1018.4 |
| 20260502231505 | 16 | 188 | 3.2 | 9.7 | 0.00 | 0.00 | 0.00 | 80 | 1018.4 |
| 20260502230003 | 16 | 215 | 3.2 | 9.7 | 0.00 | 0.00 | 0.00 | 78 | 1018.5 |
| 20260502224600 | 16 | 184 | 3.2 | 6.4 | 0.00 | 0.00 | 0.00 | 76 | 1018.4 |
| 20260502223100 | 16 | 163 | 4.8 | 11.3 | 0.00 | 0.00 | 0.00 | 77 | 1018.1 |
| 20260502221558 | 16 | 191 | 3.2 | 8.0 | 0.00 | 0.00 | 0.00 | 78 | 1018.5 |
| 20260502220058 | 16 | 186 | 4.8 | 9.7 | 0.00 | 0.00 | 0.00 | 78 | 1018.2 |
| 20260502214559 | 16 | 185 | 3.2 | 8.0 | 0.00 | 0.00 | 0.00 | 79 | 1018.0 |
| 20260502213055 | 16 | 187 | 3.2 | 6.4 | 0.00 | 0.00 | 0.00 | 78 | 1017.9 |
| 20260502211556 | 16 | 192 | 3.2 | 9.7 | 0.00 | 0.00 | 0.00 | 79 | 1017.8 |
| 20260502210054 | 16 | 189 | 4.8 | 9.7 | 0.00 | 0.00 | 0.00 | 79 | 1017.6 |
| 20260502204533 | 16 | 184 | 4.8 | 6.4 | 0.00 | 0.00 | 0.00 | 79 | 1017.6 |
| 20260502203036 | 17 | 167 | 1.6 | 4.8 | 0.00 | 0.00 | 0.00 | 79 | 1017.4 |
| 20260502201534 | 17 | 200 | 1.6 | 6.4 | 0.00 | 0.00 | 0.00 | 80 | 1017.3 |
| 20260502200032 | 17 | 250 | 0.0 | 3.2 | 0.00 | 0.00 | 0.00 | 84 | 1016.9 |
| 20260502194533 | 18 | 306 | 1.6 | 3.2 | 0.00 | 0.00 | 0.00 | 83 | 1017.0 |
| 20260502193031 | 18 | 338 | 0.0 | 4.8 | 0.00 | 0.00 | 0.00 | 82 | 1017.0 |
| 20260502191530 | 18 | 332 | 3.2 | 8.0 | 0.00 | 0.00 | 0.00 | 82 | 1017.1 |
| 20260502190029 | 18 | 23 | 3.2 | 8.0 | 0.00 | 0.00 | 0.00 | 82 | 1016.9 |
| 20260502184528 | 18 | 343 | 6.4 | 9.7 | 0.00 | 0.00 | 0.00 | 81 | 1017.0 |
| 20260502183028 | 18 | 320 | 1.6 | 4.8 | 0.00 | 0.00 | 0.00 | 82 | 1017.2 |
| 20260502181519 | 18 | 5 | 4.8 | 9.7 | 0.00 | 0.00 | 0.00 | 81 | 1017.4 |
| 20260502163015 | 19 | 331 | 4.8 | 12.9 | 0.00 | 0.00 | 0.00 | 78 | 1017.1 |
| 20260502161506 | 19 | 28 | 4.8 | 14.5 | 0.00 | 0.00 | 0.00 | 78 | 1017.2 |
| 20260502151607 | 18 | 250 | 6.4 | 16.1 | 0.00 | 0.00 | 0.00 | 79 | 1017.7 |
| 20260502140105 | 18 | 27 | 9.7 | 16.1 | 0.00 | 0.00 | 0.00 | 82 | 1018.3 |
| 20260502123050 | 19 | 308 | 6.4 | 16.1 | 0.00 | 0.00 | 0.00 | 77 | 1018.5 |
| 20260502121550 | 20 | 335 | 8.0 | 16.1 | 0.00 | 0.00 | 0.00 | 76 | 1018.4 |
| 20260502114553 | 20 | 292 | 4.8 | 16.1 | 0.00 | 0.00 | 0.00 | 78 | 1018.5 |
| 20260502113051 | 19 | 322 | 6.4 | 16.1 | 0.00 | 0.00 | 0.00 | 78 | 1018.6 |
| 20260502111547 | 19 | 10 | 4.8 | 14.5 | 0.00 | 0.00 | 0.00 | 78 | 1018.5 |
| 20260502110046 | 19 | 317 | 4.8 | 16.1 | 0.00 | 0.00 | 0.00 | 78 | 1018.5 |
| 20260502104545 | 19 | 10 | 6.4 | 16.1 | 0.00 | 0.00 | 0.00 | 76 | 1018.6 |
| 20260502103045 | 20 | 188 | 1.6 | 12.9 | 0.00 | 0.00 | 0.00 | 75 | 1018.6 |
| 20260502101549 | 19 | 353 | 3.2 | 11.3 | 0.00 | 0.00 | 0.00 | 76 | 1018.7 |
| 20260502071529 | 16 | 194 | 6.4 | 12.9 | 0.00 | 0.00 | 0.00 | 81 | 1017.9 |
| 20260502070028 | 16 | 199 | 6.4 | 12.9 | 0.00 | 0.00 | 0.00 | 81 | 1017.8 |
| 20260502064540 | 16 | 167 | 3.2 | 8.0 | 0.00 | 0.00 | 0.00 | 81 | 1018.1 |
| 20260502063033 | 16 | 201 | 4.8 | 11.3 | 0.00 | 0.00 | 0.00 | 81 | 1017.8 |
| 20260502061524 | 16 | 165 | 9.7 | 12.9 | 0.00 | 0.00 | 0.00 | 81 | 1017.8 |
| 20260502060022 | 16 | 180 | 3.2 | 8.0 | 0.00 | 0.00 | 0.00 | 82 | 1017.6 |
| 20260502054519 | 16 | 192 | 3.2 | 6.4 | 0.00 | 0.00 | 0.00 | 81 | 1017.6 |
| 20260502053018 | 16 | 196 | 0.0 | 4.8 | 0.00 | 0.00 | 0.00 | 81 | 1017.7 |
| 20260502051519 | 16 | 169 | 1.6 | 4.8 | 0.00 | 0.00 | 0.00 | 81 | 1017.7 |
| 20260502050023 | 16 | 204 | 1.6 | 6.4 | 0.00 | 0.00 | 0.00 | 81 | 1017.7 |
| 20260502044513 | 16 | 188 | 3.2 | 4.8 | 0.00 | 0.00 | 0.00 | 79 | 1017.8 |
| 20260502043013 | 16 | 179 | 1.6 | 4.8 | 0.00 | 0.00 | 0.00 | 79 | 1017.8 |
| 20260502041513 | 17 | 201 | 1.6 | 3.2 | 0.00 | 0.00 | 0.00 | 79 | 1017.9 |
| 20260502040024 | 17 | 201 | 1.6 | 3.2 | 0.00 | 0.00 | 0.00 | 79 | 1017.8 |
| 20260502034511 | 17 | 185 | 0.0 | 1.6 | 0.00 | 0.00 | 0.00 | 77 | 1017.7 |